| time (UTC) | temp F | wind direction | speed knots | gust knots | rain 1hr in | rain 24hr in | rain mn in | humidity % | barometer mb |
| 20260507223019 | 81 | 88 | 2.6 | 5.2 | 0.00 | 0.00 | 0.00 | 16 | 1008.4 |
| 20260507221518 | 80 | 22 | 5.2 | 9.6 | 0.00 | 0.00 | 0.00 | 16 | 1008.5 |
| 20260507220025 | 79 | 159 | 3.5 | 8.7 | 0.00 | 0.00 | 0.00 | 17 | 1008.8 |
| 20260507214515 | 79 | 161 | 10.4 | 14.8 | 0.00 | 0.00 | 0.00 | 16 | 1009.0 |
| 20260507213011 | 81 | 207 | 5.2 | 10.4 | 0.00 | 0.00 | 0.00 | 16 | 1009.3 |
| 20260507211506 | 80 | 311 | 3.5 | 9.6 | 0.00 | 0.00 | 0.00 | 18 | 1009.4 |
| 20260507210006 | 79 | 161 | 5.2 | 9.6 | 0.00 | 0.00 | 0.00 | 17 | 1009.8 |
| 20260507204501 | 78 | 145 | 2.6 | 9.6 | 0.00 | 0.00 | 0.00 | 17 | 1009.9 |
| 20260507203101 | 79 | 130 | 5.2 | 10.4 | 0.00 | 0.00 | 0.00 | 18 | 1010.2 |
| 20260507201559 | 77 | 159 | 3.5 | 9.6 | 0.00 | 0.00 | 0.00 | 18 | 1010.5 |
| 20260507194552 | 77 | 36 | 1.7 | 9.6 | 0.00 | 0.00 | 0.00 | 19 | 1010.9 |
| 20260507193051 | 75 | 165 | 3.5 | 10.4 | 0.00 | 0.00 | 0.00 | 20 | 1011.2 |
| 20260507191552 | 75 | 43 | 4.3 | 10.4 | 0.00 | 0.00 | 0.00 | 20 | 1011.4 |
| 20260507190047 | 75 | 163 | 5.2 | 8.7 | 0.00 | 0.00 | 0.00 | 21 | 1011.7 |
| 20260507184541 | 74 | 134 | 5.2 | 9.6 | 0.00 | 0.00 | 0.00 | 22 | 1011.9 |
| 20260507183042 | 73 | 129 | 7.8 | 11.3 | 0.00 | 0.00 | 0.00 | 23 | 1012.2 |
| 20260507181535 | 73 | 137 | 2.6 | 12.2 | 0.00 | 0.00 | 0.00 | 25 | 1012.4 |
| 20260507180031 | 71 | 74 | 6.1 | 9.6 | 0.00 | 0.00 | 0.00 | 27 | 1012.6 |
| 20260507174539 | 70 | 86 | 5.2 | 10.4 | 0.00 | 0.00 | 0.00 | 28 | 1012.6 |
| 20260507173027 | 69 | 82 | 2.6 | 12.2 | 0.00 | 0.00 | 0.00 | 28 | 1012.9 |
| 20260507171520 | 69 | 52 | 4.3 | 14.8 | 0.00 | 0.00 | 0.00 | 29 | 1013.1 |
| 20260507170023 | 68 | 82 | 8.7 | 13.0 | 0.00 | 0.00 | 0.00 | 30 | 1013.4 |
| 20260507164511 | 67 | 65 | 8.7 | 12.2 | 0.00 | 0.00 | 0.00 | 31 | 1013.6 |
| 20260507163007 | 67 | 136 | 4.3 | 13.0 | 0.00 | 0.00 | 0.00 | 33 | 1013.7 |
| 20260507161504 | 65 | 61 | 7.0 | 14.8 | 0.00 | 0.00 | 0.00 | 34 | 1013.9 |
| 20260507160059 | 65 | 53 | 10.4 | 15.6 | 0.00 | 0.00 | 0.00 | 35 | 1014.1 |
| 20260507154654 | 64 | 76 | 8.7 | 14.8 | 0.00 | 0.00 | 0.00 | 35 | 1014.2 |
| 20260507153058 | 63 | 71 | 9.6 | 13.9 | 0.00 | 0.00 | 0.00 | 35 | 1014.2 |
| 20260507151545 | 63 | 57 | 8.7 | 13.9 | 0.00 | 0.00 | 0.00 | 37 | 1014.3 |
| 20260507150043 | 62 | 51 | 10.4 | 13.9 | 0.00 | 0.00 | 0.00 | 38 | 1014.4 |
| 20260507144536 | 61 | 74 | 9.6 | 14.8 | 0.00 | 0.00 | 0.00 | 39 | 1014.4 |
| 20260507143035 | 61 | 74 | 13.0 | 15.6 | 0.00 | 0.00 | 0.00 | 38 | 1014.6 |
| 20260507141528 | 60 | 65 | 10.4 | 15.6 | 0.00 | 0.00 | 0.00 | 39 | 1014.6 |
| 20260507140022 | 60 | 74 | 12.2 | 16.5 | 0.00 | 0.00 | 0.00 | 39 | 1014.5 |
| 20260507134519 | 60 | 71 | 11.3 | 14.8 | 0.00 | 0.00 | 0.00 | 38 | 1014.6 |
| 20260507133014 | 59 | 64 | 8.7 | 13.9 | 0.00 | 0.00 | 0.00 | 40 | 1014.4 |
| 20260507131513 | 58 | 46 | 12.2 | 16.5 | 0.00 | 0.00 | 0.00 | 41 | 1014.2 |
| 20260507130111 | 58 | 71 | 7.0 | 12.2 | 0.00 | 0.00 | 0.00 | 41 | 1014.2 |
| 20260507124605 | 57 | 64 | 8.7 | 13.0 | 0.00 | 0.00 | 0.00 | 41 | 1014.0 |
| 20260507123058 | 57 | 123 | 7.0 | 9.6 | 0.00 | 0.00 | 0.00 | 34 | 1013.7 |
| 20260507121605 | 56 | 156 | 2.6 | 6.1 | 0.00 | 0.00 | 0.00 | 30 | 1013.4 |
| 20260507120050 | 57 | 128 | 3.5 | 8.7 | 0.00 | 0.00 | 0.00 | 27 | 1013.3 |
| 20260507114601 | 58 | 78 | 6.1 | 10.4 | 0.00 | 0.00 | 0.00 | 25 | 1013.1 |
| 20260507113045 | 58 | 51 | 6.1 | 11.3 | 0.00 | 0.00 | 0.00 | 25 | 1013.0 |
| 20260507111542 | 60 | 40 | 10.4 | 16.5 | 0.00 | 0.00 | 0.00 | 25 | 1013.0 |
| 20260507110041 | 60 | 231 | 0.0 | 2.6 | 0.00 | 0.00 | 0.00 | 27 | 1012.5 |
| 20260507104539 | 60 | 173 | 1.7 | 4.3 | 0.00 | 0.00 | 0.00 | 27 | 1012.4 |
| 20260507103037 | 61 | 103 | 0.9 | 6.1 | 0.00 | 0.00 | 0.00 | 28 | 1012.5 |
| 20260507101538 | 60 | 60 | 1.7 | 5.2 | 0.00 | 0.00 | 0.00 | 28 | 1012.5 |
| 20260507100039 | 60 | 67 | 5.2 | 8.7 | 0.00 | 0.00 | 0.00 | 29 | 1012.7 |
| 20260507094537 | 60 | 66 | 3.5 | 4.3 | 0.00 | 0.00 | 0.00 | 29 | 1012.5 |
| 20260507093029 | 61 | 132 | 1.7 | 3.5 | 0.00 | 0.00 | 0.00 | 27 | 1012.5 |
| 20260507091525 | 62 | 132 | 0.9 | 2.6 | 0.00 | 0.00 | 0.00 | 25 | 1012.3 |
| 20260507090023 | 63 | 132 | 0.9 | 3.5 | 0.00 | 0.00 | 0.00 | 22 | 1012.4 |
| 20260507084519 | 63 | 132 | 0.9 | 3.5 | 0.00 | 0.00 | 0.00 | 21 | 1012.5 |
| 20260507083018 | 64 | 269 | 0.9 | 3.5 | 0.00 | 0.00 | 0.00 | 19 | 1012.5 |
| 20260507081533 | 64 | 250 | 0.0 | 1.7 | 0.00 | 0.00 | 0.00 | 19 | 1012.7 |
| 20260507080013 | 64 | 251 | 1.7 | 4.3 | 0.00 | 0.00 | 0.00 | 18 | 1012.8 |
| 20260507074522 | 65 | 270 | 3.5 | 5.2 | 0.00 | 0.00 | 0.00 | 18 | 1012.7 |
| 20260507073008 | 66 | 292 | 6.1 | 7.8 | 0.00 | 0.00 | 0.00 | 17 | 1012.6 |
| 20260507071507 | 66 | 286 | 2.6 | 4.3 | 0.00 | 0.00 | 0.00 | 18 | 1012.6 |
| 20260507070010 | 66 | 267 | 3.5 | 6.1 | 0.00 | 0.00 | 0.00 | 17 | 1012.5 |
| 20260507064501 | 67 | 290 | 1.7 | 4.3 | 0.00 | 0.00 | 0.00 | 18 | 1012.4 |
| 20260507063059 | 67 | 290 | 2.6 | 4.3 | 0.00 | 0.00 | 0.00 | 18 | 1012.4 |
| 20260507061601 | 68 | 290 | 3.5 | 7.0 | 0.00 | 0.00 | 0.00 | 18 | 1012.2 |
| 20260507060058 | 67 | 275 | 3.5 | 6.1 | 0.00 | 0.00 | 0.00 | 19 | 1012.1 |
| 20260507054636 | 68 | 262 | 1.7 | 5.2 | 0.00 | 0.00 | 0.00 | 19 | 1011.9 |
| 20260507053054 | 68 | 300 | 3.5 | 6.1 | 0.00 | 0.00 | 0.00 | 20 | 1011.6 |
| 20260507051552 | 69 | 292 | 3.5 | 4.3 | 0.00 | 0.00 | 0.00 | 20 | 1011.8 |
| 20260507050056 | 69 | 269 | 1.7 | 5.2 | 0.00 | 0.00 | 0.00 | 19 | 1011.8 |
| 20260507044556 | 69 | 300 | 1.7 | 3.5 | 0.00 | 0.00 | 0.00 | 20 | 1011.8 |
| 20260507043050 | 71 | 313 | 0.9 | 2.6 | 0.00 | 0.00 | 0.00 | 19 | 1011.7 |
| 20260507041559 | 72 | 313 | 1.7 | 5.2 | 0.00 | 0.00 | 0.00 | 18 | 1011.4 |
| 20260507040048 | 72 | 331 | 2.6 | 4.3 | 0.00 | 0.00 | 0.00 | 16 | 1011.2 |
| 20260507034556 | 73 | 330 | 2.6 | 7.8 | 0.00 | 0.00 | 0.00 | 17 | 1011.2 |
| 20260507033053 | 73 | 323 | 4.3 | 7.8 | 0.00 | 0.00 | 0.00 | 16 | 1011.0 |
| 20260507031602 | 74 | 336 | 2.6 | 5.2 | 0.00 | 0.00 | 0.00 | 16 | 1010.9 |
| 20260507030053 | 74 | 344 | 2.6 | 7.0 | 0.00 | 0.00 | 0.00 | 16 | 1010.7 |
| 20260507024546 | 74 | 338 | 2.6 | 7.8 | 0.00 | 0.00 | 0.00 | 16 | 1010.3 |
| 20260507023046 | 75 | 328 | 2.6 | 7.8 | 0.00 | 0.00 | 0.00 | 16 | 1010.1 |
| 20260507021544 | 75 | 310 | 6.1 | 9.6 | 0.00 | 0.00 | 0.00 | 16 | 1010.0 |
| 20260507020047 | 75 | 298 | 6.1 | 13.0 | 0.00 | 0.00 | 0.00 | 16 | 1009.7 |
| 20260507014550 | 76 | 301 | 10.4 | 14.8 | 0.00 | 0.00 | 0.00 | 16 | 1009.5 |
| 20260507013045 | 76 | 303 | 7.8 | 10.4 | 0.00 | 0.00 | 0.00 | 16 | 1009.4 |
| 20260507011543 | 76 | 320 | 7.0 | 13.9 | 0.00 | 0.00 | 0.00 | 16 | 1009.3 |
| 20260507010043 | 77 | 303 | 8.7 | 15.6 | 0.00 | 0.00 | 0.00 | 16 | 1009.0 |
| 20260507004539 | 77 | 331 | 10.4 | 14.8 | 0.00 | 0.00 | 0.00 | 16 | 1008.8 |
| 20260507003043 | 77 | 319 | 11.3 | 18.2 | 0.00 | 0.00 | 0.00 | 16 | 1008.7 |
| 20260507001541 | 77 | 306 | 12.2 | 19.1 | 0.00 | 0.00 | 0.00 | 16 | 1008.6 |
| 20260507000041 | 78 | 277 | 11.3 | 13.9 | 0.00 | 0.00 | 0.00 | 16 | 1008.6 |
| 20260506234537 | 77 | 334 | 7.8 | 16.5 | 0.00 | 0.00 | 0.00 | 16 | 1008.3 |
| 20260506233041 | 77 | 330 | 9.6 | 20.9 | 0.00 | 0.00 | 0.00 | 16 | 1008.3 |
| 20260506231535 | 77 | 304 | 10.4 | 22.6 | 0.00 | 0.00 | 0.00 | 16 | 1008.5 |
| 20260506230032 | 78 | 305 | 7.8 | 20.9 | 0.00 | 0.00 | 0.00 | 16 | 1008.5 |
| 20260506224531 | 77 | 321 | 7.0 | 18.2 | 0.00 | 0.00 | 0.00 | 16 | 1008.7 |